Regional Weather Roundup
Issued by NWS Wilmington, NC

Home | Current Version | Previous Version | Text Only | Print | Product List | Glossary On
Versions: 1 2 3 4 5 6 7 8 9 10 11 12 13 14 15 16 17 18 19 20 21 22 23 24 25 26 27
000
ASUS42 KILM 261113
RWRILM
RWRILM
REGIONAL HOURLY WEATHER ROUNDUP
NATIONAL WEATHER SERVICE WILMINGTON NC
600 AM EST SUN FEB 26 2017

NOTE: "FAIR" INDICATES FEW OR NO CLOUDS BELOW 12,000 FEET WITH NO
SIGNIFICANT WEATHER AND/OR OBSTRUCTIONS TO VISIBILITY.

...............WFO WILMINGTON COUNTY WARNING AREA...............

......COASTAL NC AND SC COUNTIES......

CITY           SKY/WX    TMP DP  RH WIND       PRES   REMARKS
WILMINGTON     CLEAR     44  22  41 NW8       30.06R
N MYRTLE BEACH CLEAR     46  29  51 NW3       30.07R
MYRTLE BEACH   CLEAR     46  27  46 NW7       30.09R

......INLAND NC AND SC COUNTIES.......

CITY           SKY/WX    TMP DP  RH WIND       PRES   REMARKS
LUMBERTON      CLEAR     39  26  59 CALM      30.08R
ELIZABETHTOWN  CLEAR     43  19  38 CALM      30.07R
WHITEVILLE     CLEAR     45  23  41 CALM      30.07R
FLORENCE       CLEAR     42  18  37 NW6       30.09R
DARLINGTON     CLEAR     40  21  46 NW6       30.10R
KINGSTREE      FAIR      37  27  65 W3        30.09R
HARTSVILLE     FAIR      36  23  60 N3        30.08R
BENNETTSVILLE  NOT AVBL
CONWAY         FAIR      37  32  81 CALM      30.09R
GEORGETOWN     FAIR      45  28  53 NW3       30.08R
MARION         FAIR      41  23  48 N5        30.08R

....................REST OF NORTH CAROLINA......................

.........EASTERN NC.........

CITY           SKY/WX    TMP DP  RH WIND       PRES   REMARKS
CAPE HATTERAS  CLEAR     52  31  44 NW9G21    29.98R
JACKSONVILLE   CLEAR     43  24  47 NW5       30.06R
MOREHEAD CITY  CLEAR     49  27  42 N15       30.03R
KENANSVILLE    CLEAR     43  21  42 NW5       30.07R
NEW BERN       CLEAR     45  22  40 NW8       30.05R
ELIZABETH CITY CLEAR     42  25  50 W12       30.01R

.........CENTRAL NC.........

CITY           SKY/WX    TMP DP  RH WIND       PRES   REMARKS
RALEIGH DURHAM CLEAR     38  18  44 NW5       30.08R WCI  34
ROCKY MOUNT    CLEAR     40  21  46 NW10      30.07R WCI  33
ROANOKE RAPIDS NOT AVBL
FAYETTEVILLE     N/A    N/A N/A N/A MISG      30.07R
HOFFMAN        CLEAR     37  19  48 NW5       30.08R WCI  34

.........WESTERN NC.........

CITY           SKY/WX    TMP DP  RH WIND       PRES   REMARKS
CHARLOTTE      PTCLDY    35  18  49 NW5       30.09R WCI  31
GREENSBORO     CLEAR     34  18  52 NW6       30.07R WCI  29
HICKORY        NOT AVBL
BOONE          NOT AVBL
ASHEVILLE      NOT AVBL

.....................REST OF SOUTH CAROLINA.....................

.........EASTERN SC.........

CITY           SKY/WX    TMP DP  RH WIND       PRES   REMARKS
CHARLESTON     CLEAR     46  24  42 NW7       30.09R
BEAUFORT MCAS  CLEAR     46  27  47 NW5       30.11R
HILTON HEAD    NOT AVBL

.........CENTRAL SC.........

CITY           SKY/WX    TMP DP  RH WIND       PRES   REMARKS
COLUMBIA       CLEAR     37  27  67 CALM      30.10R
ORANGEBURG     CLEAR     44  24  45 NW5       30.10R
SUMTER SHAW    CLEAR     42  20  41 NW7       30.07R

.........WESTERN SC.........

CITY           SKY/WX    TMP DP  RH WIND       PRES   REMARKS
GREENVILLE     NOT AVBL
ROCK HILL      CLEAR     30  20  66 N5        30.09R WCI  25
ANDERSON       CLEAR     36  18  48 W5        30.10R WCI  32
CLEMSON        NOT AVBL
GREENWOOD      CLEAR     31  22  69 CALM      30.12R


...................COASTAL AND OFFSHORE REPORTS..................

................LOCAL PIERS AND NC RESERVE................


STATION/POSITION TIME  SKY/WX   TEMP    WIND        PRES    VSBY
                                AIR SEA DIR/SP/G
                 (UTC)          (F)     (DEG/KT/KT) (MB)    (MI)
JOHNY MRCER PIER 1048            49 59  320/  8/ 11 1016.4R
NC RESRV MASNBRO 0945            49     240/  1     1015.0
OCEAN CREST PIER NOT AVBL
SPRINGMAID  PIER 1048                               1017.6R


................COASTAL AND OFFSHORE BUOYS................


STATION/POSITION TIME  SKY/WX   TEMP    WIND        PRES    VSBY
                                AIR SEA DIR/SP/G
                 (UTC)          (F)     (DEG/KT/KT) (MB)    (MI)
DIMNDSHOAL 41025 1050            56 72  340/ 19/ 23 1014.6R
WVE H/P(F/S)=  6/10 SWL H/P/D(F/S/D)=  5/150/10

CAPE LOOKOUT     1100            51     340/ 18/ 22 1016.2R
ONSLOW BAY 41036 NOT AVBL
ONSLOW BAY 41064 1008            57     350/ 17/ 23 1015.3R
ONSLOW BAY 41159 1043               66                N/A
WVE H/P(F/S)=  5/ 4 SWL H/P/D(F/S/D)=  2/120/11

MASNBO INL 41110 1059               58                N/A
WVE H/P(F/S)=  3/10 SWL H/P/D(F/S/D)=  2/120/11

WILM HARBR 41108 1047               58                N/A
WVE H/P(F/S)=  4/10 SWL H/P/D(F/S/D)=  2/130/11

27SE WRITB 41037 1008            56 62  330/ 17/ 25 1014.6R
FRYING PAN 41013 1050            58 69  330/ 19/ 25 1017.0R
WVE H/P(F/S)=  5/10 SWL H/P/D(F/S/D)=  3/110/10

SUNST NRSH 41024 1008            52 60  350/ 12/ 14 1016.7R
CAPRS NRSH 41029 1008            54 60  320/ 16/ 19 1017.4R
EDISTO     41004 1050            59 69  320/ 19/ 21 1017.1R
WVE H/P(F/S)=  6/ 5 SWL H/P/D(F/S/D)=  3/110/10



..........OFFSHORE BUOYS BEYOND 100 NM OFFSHORE...........
.....IN A TRIANGLE---HAT TO BERMUDA TO BAHAMAS TO HAT.....


STATION/POSITION TIME  SKY/WX   TEMP    WIND        PRES    VSBY
                                AIR SEA DIR/SP/G
                 (UTC)          (F)     (DEG/KT/KT) (MB)    (MI)
150E HAT   41001 NOT AVBL
W BERMUDA  41048 1050            69 69  230/ 14/ 17 1014.6R
WVE H/P(F/S)=  5/ 8 SWL H/P/D(F/S/D)=  3/140/ 8

ATLANTIC S 41049 1050            72 72  170/  8/ 10 1019.8R
WVE H/P(F/S)=  5/ 8 SWL H/P/D(F/S/D)=  5/100/ 8

E BAHAMAS  41046 1050            77 77  110/ 12/ 14 1016.5R
WVE H/P(F/S)=  4/12 SWL H/P/D(F/S/D)=  3/12

NE BAHAMAS 41047 1100            72 73  270/  6/ 10 1017.4
120E CANVRL41010 NOT AVBL

END




USA.gov is the U.S. government's official web portal to all federal, state and local government web resources and services.